Powrót do katalogu

HULIANWANG DIGUI-178

AktywnyNaukaLEO
NORAD 100203·PAYLOAD·🇨🇳 China

Wystrzelony Aug 4, 2026 z Wenchang Space Launch Site

Loading…

Następne Przeloty (najbliższe 24 godziny)

TLE

ŚwieżeSource: Space-Track

Epoka: Sep 14, 2026, 22:20 UTC

1 A0203U 26176A   26257.93105545 -.00000086  00000-0  82035-4 0  9998
2 A0203  49.9876 244.2090 0000242 355.4105   4.6764 13.29328279  5550

Śledź HULIANWANG DIGUI-178 w czasie rzeczywistym z AllMySat

Download on the App Store